Zurück zum Katalog

STARLINK-6356

AktivKommunikationVLEO
NORAD 57363·PAYLOAD·🇺🇸 United States

Gestartet Jul 16, 2023 von Cape Canaveral Space Force Station

Loading…

Nächste Überflüge (nächste 24 Stunden)

TLE

AktuellSource: CelesTrak SupGP

Epoche: Sep 14, 2026, 20:50 UTC

1 57363C 23099AM  26257.86854167  .00026290  00000+0  95258-3 0  2571
2 57363  43.0024 252.9261 0001879 273.7921 173.7545 15.27551852    16

Verfolge STARLINK-6356 in Echtzeit mit AllMySat

Download on the App Store